Location: Bijele Vode
(45.2833°N, 16.2000°E)
Time: 17:06:57
(UTC+00:00)

DELTA 2 R/B (1) - Pass Details

Date: 18 September 2020
Orbit: 789 x 803 km, 39.6° (Epoch: 20 October)

Event Time Altitude Azimuth Distance (km) Brightness Sun altitude
Rises 17:51:31 0° 268° (W) 3,277 8.6 -9.8°
Reaches altitude 10° 17:54:08 10° 261° (W) 2,347 7.3 -10.3°
Maximum altitude 17:59:14 39° 194° (SSW) 1,171 4.5 -11.2°
Enters shadow 18:03:43 13° 130° (SE) 2,137 5.3 -11.9°
